BWA528 TTPP-KJFK

Flight info

Callsign BWA528
Flight time 4h 33m
Altitude 32000
Route PERRY UG449 ANADA DCT KINCH/M080F320 L455 DUPOX/M080F340 L455 SAVIK/N0468F340 Y486 OWENZ Y495 CAMRN
Aircraft B738/M-SDE2E3FGHIRWXY/LB1

Departure

Time 2026-05-07 17:24
Airport Piarco International Airport (TTPP)

Arrival

Time 2026-05-07 21:57
Airport John F. Kennedy International Airport (KJFK)
Time Latitude Longitude Altitude Speed Heading
2026-05-07 16:19 10.59976 -61.33995 50 ft 0 kts 20°
2026-05-07 17:13 10.59974 -61.33996 50 ft 2 kts 20°
2026-05-07 17:13 10.59951 -61.34003 50 ft 4 kts
2026-05-07 17:13 10.59924 -61.34004 50 ft 4 kts
2026-05-07 17:13 10.59898 -61.34008 50 ft 4 kts 11°
2026-05-07 17:14 10.59871 -61.34010 50 ft 4 kts
2026-05-07 17:14 10.59845 -61.34010 50 ft 4 kts 354°
2026-05-07 17:14 10.59833 -61.34008 50 ft 1 kts 354°
2026-05-07 17:14 10.59832 -61.34008 50 ft 0 kts 354°
2026-05-07 17:17 10.59834 -61.34011 50 ft 1 kts 328°
2026-05-07 17:17 10.59835 -61.34030 46 ft 6 kts 273°
2026-05-07 17:17 10.59838 -61.34089 49 ft 10 kts 272°
2026-05-07 17:17 10.59820 -61.34155 48 ft 10 kts 228°
2026-05-07 17:18 10.59780 -61.34173 48 ft 10 kts 188°
2026-05-07 17:18 10.59719 -61.34194 46 ft 9 kts 222°
2026-05-07 17:18 10.59708 -61.34257 47 ft 9 kts 272°
2026-05-07 17:18 10.59711 -61.34321 46 ft 9 kts 272°
2026-05-07 17:19 10.59712 -61.34384 46 ft 9 kts 271°
2026-05-07 17:19 10.59710 -61.34459 45 ft 13 kts 263°
2026-05-07 17:19 10.59654 -61.34526 43 ft 13 kts 189°
2026-05-07 17:19 10.59564 -61.34526 44 ft 13 kts 179°
2026-05-07 17:20 10.59476 -61.34524 45 ft 12 kts 179°
2026-05-07 17:20 10.59412 -61.34567 43 ft 12 kts 257°
2026-05-07 17:20 10.59406 -61.34651 44 ft 12 kts 265°
2026-05-07 17:20 10.59390 -61.34731 43 ft 12 kts 255°
2026-05-07 17:21 10.59368 -61.34809 42 ft 11 kts 254°
2026-05-07 17:21 10.59351 -61.34886 42 ft 11 kts 266°
2026-05-07 17:21 10.59352 -61.34962 41 ft 11 kts 271°
2026-05-07 17:21 10.59354 -61.35034 40 ft 10 kts 271°
2026-05-07 17:22 10.59356 -61.35106 39 ft 10 kts 271°
2026-05-07 17:22 10.59375 -61.35170 36 ft 10 kts 316°
2026-05-07 17:22 10.59437 -61.35192 38 ft 10 kts 356°
2026-05-07 17:22 10.59497 -61.35171 37 ft 9 kts 31°
2026-05-07 17:23 10.59533 -61.35120 39 ft 9 kts 80°
2026-05-07 17:23 10.59535 -61.34952 40 ft 57 kts 90°
2026-05-07 17:23 10.59535 -61.34282 48 ft 130 kts 89°
2026-05-07 17:23 10.59521 -61.33158 118 ft 184 kts 92°
2026-05-07 17:24 10.59458 -61.31752 655 ft 211 kts 95°
2026-05-07 17:24 10.59377 -61.30188 1193 ft 225 kts 92°
2026-05-07 17:24 10.59515 -61.28588 1791 ft 231 kts 74°
2026-05-07 17:24 10.60371 -61.27234 2393 ft 237 kts 43°
2026-05-07 17:25 10.61883 -61.26431 2844 ft 259 kts 13°
2026-05-07 17:25 10.63602 -61.26475 3481 ft 271 kts 346°
2026-05-07 17:25 10.65331 -61.27275 4270 ft 276 kts 331°
2026-05-07 17:25 10.66952 -61.28333 5008 ft 279 kts 327°
2026-05-07 17:26 10.68566 -61.29467 5731 ft 283 kts 326°
2026-05-07 17:26 10.70187 -61.30617 6493 ft 285 kts 326°
2026-05-07 17:26 10.71817 -61.31770 7199 ft 286 kts 326°
2026-05-07 17:26 10.73471 -61.32930 7811 ft 291 kts 326°
2026-05-07 17:27 10.75153 -61.34104 8466 ft 294 kts 326°
2026-05-07 17:27 10.76855 -61.35285 9128 ft 297 kts 326°
2026-05-07 17:27 10.78548 -61.36455 9767 ft 299 kts 326°
2026-05-07 17:27 10.80288 -61.37653 10245 ft 309 kts 326°
2026-05-07 17:28 10.82130 -61.38918 10391 ft 328 kts 327°
2026-05-07 17:28 10.84080 -61.40255 10539 ft 347 kts 326°
2026-05-07 17:28 10.86130 -61.41661 10667 ft 364 kts 326°
2026-05-07 17:28 10.88276 -61.43132 10807 ft 380 kts 326°
2026-05-07 17:29 10.90512 -61.44664 10904 ft 395 kts 326°
2026-05-07 17:29 10.92827 -61.46251 11102 ft 405 kts 326°
2026-05-07 17:29 10.95181 -61.47864 11491 ft 409 kts 326°
2026-05-07 17:29 10.97555 -61.49492 11938 ft 411 kts 327°
2026-05-07 17:30 10.99907 -61.51103 12385 ft 413 kts 326°
2026-05-07 17:30 11.02296 -61.52740 12824 ft 415 kts 326°
2026-05-07 17:30 11.04704 -61.54390 13234 ft 418 kts 326°
2026-05-07 17:30 11.07120 -61.56046 13636 ft 420 kts 326°
2026-05-07 17:31 11.09554 -61.57715 14009 ft 423 kts 326°
2026-05-07 17:31 11.12004 -61.59394 14373 ft 426 kts 326°
2026-05-07 17:31 11.14475 -61.61091 14756 ft 428 kts 326°
2026-05-07 17:31 11.16953 -61.62792 15135 ft 430 kts 326°
2026-05-07 17:32 11.19443 -61.64501 15500 ft 432 kts 326°
2026-05-07 17:32 11.21945 -61.66218 15836 ft 435 kts 326°
2026-05-07 17:32 11.24461 -61.67945 16126 ft 438 kts 326°
2026-05-07 17:32 11.27001 -61.69688 16463 ft 440 kts 326°
2026-05-07 17:33 11.29548 -61.71437 16763 ft 442 kts 326°
2026-05-07 17:33 11.32100 -61.73190 17073 ft 444 kts 326°
2026-05-07 17:33 11.34670 -61.74954 17390 ft 446 kts 326°
2026-05-07 17:33 11.37246 -61.76725 17693 ft 448 kts 326°
2026-05-07 17:34 11.39834 -61.78505 17973 ft 450 kts 326°
2026-05-07 17:34 11.42403 -61.80272 18250 ft 452 kts 326°
2026-05-07 17:34 11.45010 -61.82065 18520 ft 454 kts 326°
2026-05-07 17:34 11.47636 -61.83870 18781 ft 456 kts 326°
2026-05-07 17:35 11.50275 -61.85687 19002 ft 458 kts 326°
2026-05-07 17:35 11.52922 -61.87508 19249 ft 460 kts 326°
2026-05-07 17:35 11.55582 -61.89339 19514 ft 461 kts 326°
2026-05-07 17:35 11.58251 -61.91177 19735 ft 464 kts 326°
2026-05-07 17:36 11.60936 -61.93025 19952 ft 466 kts 326°
2026-05-07 17:36 11.63624 -61.94876 20188 ft 467 kts 326°
2026-05-07 17:36 11.66329 -61.96741 20418 ft 468 kts 326°
2026-05-07 17:36 11.69039 -61.98608 20606 ft 471 kts 326°
2026-05-07 17:37 11.71758 -62.00483 20798 ft 473 kts 326°
2026-05-07 17:37 11.74484 -62.02363 21026 ft 474 kts 326°
2026-05-07 17:37 11.77221 -62.04250 21224 ft 475 kts 326°
2026-05-07 17:37 11.79941 -62.06126 21398 ft 477 kts 325°
2026-05-07 17:38 11.82730 -62.08050 21602 ft 479 kts 325°
2026-05-07 17:38 11.85451 -62.09928 21787 ft 480 kts 325°
2026-05-07 17:38 11.88220 -62.11839 21928 ft 482 kts 325°
2026-05-07 17:38 11.91000 -62.13759 22086 ft 483 kts 325°
2026-05-07 17:39 11.93794 -62.15689 22274 ft 484 kts 325°
2026-05-07 17:39 11.96586 -62.17618 22456 ft 485 kts 325°
2026-05-07 17:39 11.99385 -62.19553 22602 ft 487 kts 325°
2026-05-07 17:39 12.02197 -62.21496 22738 ft 488 kts 325°
2026-05-07 17:40 12.05012 -62.23441 22887 ft 489 kts 325°
2026-05-07 17:40 12.07836 -62.25395 23048 ft 490 kts 325°
2026-05-07 17:40 12.10663 -62.27351 23187 ft 492 kts 325°
2026-05-07 17:40 12.13508 -62.29320 23317 ft 493 kts 325°
2026-05-07 17:41 12.16352 -62.31289 23468 ft 494 kts 325°
2026-05-07 17:41 12.19202 -62.33262 23621 ft 494 kts 325°
2026-05-07 17:41 12.22047 -62.35232 23770 ft 495 kts 325°
2026-05-07 17:41 12.24898 -62.37206 23881 ft 496 kts 325°
2026-05-07 17:42 12.27769 -62.39196 24007 ft 497 kts 325°
2026-05-07 17:42 12.30632 -62.41180 24145 ft 498 kts 325°
2026-05-07 17:42 12.33504 -62.43171 24292 ft 498 kts 325°
2026-05-07 17:42 12.36371 -62.45159 24442 ft 498 kts 325°
2026-05-07 17:43 12.39206 -62.47125 24551 ft 499 kts 325°
2026-05-07 17:43 12.42082 -62.49120 24685 ft 499 kts 325°
2026-05-07 17:43 12.44958 -62.51115 24818 ft 500 kts 325°
2026-05-07 17:43 12.47833 -62.53111 24942 ft 500 kts 325°
2026-05-07 17:44 12.50712 -62.55110 25087 ft 499 kts 325°
2026-05-07 17:44 12.53588 -62.57107 25224 ft 499 kts 325°
2026-05-07 17:44 12.56473 -62.59112 25323 ft 500 kts 324°
2026-05-07 17:44 12.59358 -62.61117 25427 ft 501 kts 324°
2026-05-07 17:45 12.62240 -62.63121 25556 ft 501 kts 324°
2026-05-07 17:45 12.65115 -62.65120 25715 ft 500 kts 324°
2026-05-07 17:45 12.67986 -62.67116 25934 ft 498 kts 324°
2026-05-07 17:45 12.70842 -62.69103 26137 ft 496 kts 324°
2026-05-07 17:46 12.73703 -62.71093 26302 ft 496 kts 324°
2026-05-07 17:46 12.76554 -62.73078 26465 ft 495 kts 324°
2026-05-07 17:46 12.79405 -62.75063 26659 ft 494 kts 324°
2026-05-07 17:46 12.82239 -62.77037 26884 ft 492 kts 324°
2026-05-07 17:47 12.85034 -62.78984 27090 ft 491 kts 324°
2026-05-07 17:47 12.87858 -62.80952 27298 ft 490 kts 324°
2026-05-07 17:47 12.90676 -62.82916 27498 ft 489 kts 324°
2026-05-07 17:47 12.93490 -62.84878 27714 ft 488 kts 324°
2026-05-07 17:48 12.96293 -62.86833 27932 ft 487 kts 324°
2026-05-07 17:48 12.99085 -62.88781 28133 ft 486 kts 324°
2026-05-07 17:48 13.01869 -62.90724 28357 ft 484 kts 324°
2026-05-07 17:48 13.04656 -62.92670 28570 ft 483 kts 324°
2026-05-07 17:49 13.07430 -62.94607 28779 ft 482 kts 324°
2026-05-07 17:49 13.10203 -62.96543 28995 ft 481 kts 324°
2026-05-07 17:49 13.12969 -62.98477 29228 ft 480 kts 324°
2026-05-07 17:49 13.15720 -63.00399 29481 ft 478 kts 324°
2026-05-07 17:50 13.18460 -63.02315 29711 ft 477 kts 324°
2026-05-07 17:50 13.21214 -63.04240 29912 ft 476 kts 324°
2026-05-07 17:50 13.23944 -63.06149 30128 ft 476 kts 324°
2026-05-07 17:50 13.26706 -63.08030 30366 ft 475 kts 326°
2026-05-07 17:51 13.29515 -63.09798 30636 ft 473 kts 328°
2026-05-07 17:51 13.32342 -63.11508 30919 ft 471 kts 328°
2026-05-07 17:51 13.35135 -63.13174 31211 ft 468 kts 328°
2026-05-07 17:51 13.37939 -63.14849 31486 ft 466 kts 328°
2026-05-07 17:52 13.40732 -63.16529 31726 ft 464 kts 327°
2026-05-07 17:52 13.43513 -63.18212 31939 ft 463 kts 327°
2026-05-07 17:52 13.49070 -63.21600 31936 ft 464 kts 327°
2026-05-07 17:53 13.54609 -63.24989 31940 ft 463 kts 327°
2026-05-07 17:53 13.60138 -63.28373 31939 ft 461 kts 327°
2026-05-07 17:54 13.65644 -63.31744 31950 ft 460 kts 327°
2026-05-07 17:54 13.71111 -63.35091 31946 ft 459 kts 327°
2026-05-07 17:55 13.76602 -63.38455 31944 ft 459 kts 327°
2026-05-07 17:55 13.82099 -63.41826 31937 ft 460 kts 327°
2026-05-07 17:56 13.87608 -63.45205 31932 ft 461 kts 327°
2026-05-07 17:56 13.93130 -63.48595 31927 ft 462 kts 327°
2026-05-07 17:57 13.97734 -63.51421 31925 ft 463 kts 327°
2026-05-07 17:57 14.04178 -63.55381 31934 ft 464 kts 326°
2026-05-07 17:58 14.09724 -63.58792 31924 ft 465 kts 326°
2026-05-07 17:58 14.15265 -63.62199 31923 ft 462 kts 326°
2026-05-07 17:59 14.20772 -63.65586 31921 ft 459 kts 326°
2026-05-07 17:59 14.26243 -63.68957 31928 ft 457 kts 326°
2026-05-07 18:00 14.31696 -63.72317 31925 ft 456 kts 326°
2026-05-07 18:00 14.37148 -63.75682 31924 ft 457 kts 326°
2026-05-07 18:01 14.42585 -63.79038 31932 ft 459 kts 326°
2026-05-07 18:01 14.48072 -63.82428 31934 ft 461 kts 326°
2026-05-07 18:02 14.56337 -63.87537 31941 ft 463 kts 326°
2026-05-07 18:03 14.61872 -63.90960 31940 ft 464 kts 326°
2026-05-07 18:03 14.67409 -63.94385 31922 ft 464 kts 326°
2026-05-07 18:04 14.72905 -63.97789 31925 ft 463 kts 326°
2026-05-07 18:04 14.78422 -64.01207 31929 ft 461 kts 326°
2026-05-07 18:05 14.83910 -64.04609 31931 ft 459 kts 326°
2026-05-07 18:05 14.89381 -64.08004 31955 ft 457 kts 326°
2026-05-07 18:06 14.93916 -64.10819 31962 ft 456 kts 325°
2026-05-07 18:06 14.99355 -64.14191 31962 ft 455 kts 326°
2026-05-07 18:07 15.05112 -64.16965 31962 ft 457 kts 333°
2026-05-07 18:07 15.10963 -64.19509 31966 ft 456 kts 333°
2026-05-07 18:08 15.16806 -64.22061 31962 ft 455 kts 333°
2026-05-07 18:08 15.22622 -64.24630 31969 ft 455 kts 333°
2026-05-07 18:09 15.28428 -64.27208 31961 ft 455 kts 332°
2026-05-07 18:09 15.34277 -64.29810 31954 ft 455 kts 332°
2026-05-07 18:10 15.40083 -64.32394 31951 ft 455 kts 332°
2026-05-07 18:10 15.45891 -64.34978 31938 ft 455 kts 332°
2026-05-07 18:11 15.51691 -64.37560 31948 ft 455 kts 332°
2026-05-07 18:11 15.57484 -64.40143 31944 ft 454 kts 332°
2026-05-07 18:12 15.63289 -64.42733 31947 ft 454 kts 332°
2026-05-07 18:12 15.69100 -64.45327 31949 ft 454 kts 332°
2026-05-07 18:13 15.74899 -64.47916 31958 ft 455 kts 332°
2026-05-07 18:13 15.80710 -64.50510 31953 ft 455 kts 332°
2026-05-07 18:14 15.86512 -64.53100 31952 ft 453 kts 332°
2026-05-07 18:14 15.92321 -64.55699 31954 ft 453 kts 332°
2026-05-07 18:15 15.98101 -64.58288 31955 ft 453 kts 332°
2026-05-07 18:15 16.03891 -64.60882 31954 ft 453 kts 332°
2026-05-07 18:16 16.09684 -64.63478 31955 ft 453 kts 331°
2026-05-07 18:16 16.15473 -64.66075 31950 ft 453 kts 331°
2026-05-07 18:17 16.21234 -64.68666 31954 ft 453 kts 331°
2026-05-07 18:17 16.27021 -64.71259 31951 ft 453 kts 331°
2026-05-07 18:18 16.32815 -64.73860 31956 ft 452 kts 331°
2026-05-07 18:18 16.38592 -64.76456 31951 ft 452 kts 331°
2026-05-07 18:19 16.44327 -64.79036 31953 ft 451 kts 331°
2026-05-07 18:19 16.50083 -64.81628 31954 ft 451 kts 331°
2026-05-07 18:20 16.55848 -64.84226 31955 ft 451 kts 331°
2026-05-07 18:20 16.61608 -64.86823 31953 ft 451 kts 331°
2026-05-07 18:21 16.67373 -64.89423 31956 ft 451 kts 331°
2026-05-07 18:21 16.73137 -64.92024 31954 ft 451 kts 331°
2026-05-07 18:22 16.78905 -64.94630 31952 ft 451 kts 330°
2026-05-07 18:22 16.84637 -64.97220 31958 ft 451 kts 330°
2026-05-07 18:23 16.90407 -64.99830 31965 ft 451 kts 330°
2026-05-07 18:23 16.96181 -65.02442 31964 ft 452 kts 330°
2026-05-07 18:24 17.01957 -65.05060 31963 ft 452 kts 330°
2026-05-07 18:24 17.07730 -65.07676 31963 ft 452 kts 330°
2026-05-07 18:25 17.13502 -65.10293 31964 ft 452 kts 330°
2026-05-07 18:25 17.19231 -65.12892 31962 ft 451 kts 330°
2026-05-07 18:26 17.24990 -65.15507 31964 ft 451 kts 330°
2026-05-07 18:26 17.30755 -65.18127 31961 ft 450 kts 330°
2026-05-07 18:27 17.36504 -65.20741 31963 ft 450 kts 330°
2026-05-07 18:27 17.42253 -65.23356 31962 ft 450 kts 330°
2026-05-07 18:28 17.48001 -65.25973 31965 ft 450 kts 330°
2026-05-07 18:28 17.53744 -65.28590 31961 ft 450 kts 330°
2026-05-07 18:29 17.59446 -65.31192 31964 ft 450 kts 330°
2026-05-07 18:29 17.65184 -65.33809 31963 ft 450 kts 330°
2026-05-07 18:30 17.70928 -65.36431 31961 ft 450 kts 330°
2026-05-07 18:30 17.76672 -65.39056 31963 ft 450 kts 329°
2026-05-07 18:31 17.82415 -65.41682 31964 ft 450 kts 329°
2026-05-07 18:31 17.88171 -65.44315 31962 ft 451 kts 329°
2026-05-07 18:32 17.93917 -65.46947 31965 ft 451 kts 329°
2026-05-07 18:32 17.99635 -65.49567 31963 ft 451 kts 329°
2026-05-07 18:33 18.05386 -65.52205 31970 ft 451 kts 329°
2026-05-07 18:33 18.11129 -65.54840 31973 ft 451 kts 329°
2026-05-07 18:34 18.16874 -65.57477 31968 ft 450 kts 329°
2026-05-07 18:34 18.22614 -65.60114 31971 ft 450 kts 329°
2026-05-07 18:35 18.28318 -65.62738 31975 ft 450 kts 329°
2026-05-07 18:35 18.34048 -65.65376 31972 ft 450 kts 329°
2026-05-07 18:36 18.39790 -65.68019 31969 ft 449 kts 329°
2026-05-07 18:36 18.45520 -65.70660 31973 ft 449 kts 329°
2026-05-07 18:37 18.51251 -65.73304 31975 ft 450 kts 329°
2026-05-07 18:37 18.56988 -65.75951 31965 ft 450 kts 329°
2026-05-07 18:38 18.62735 -65.78606 31961 ft 451 kts 329°
2026-05-07 18:38 18.68450 -65.81247 31964 ft 451 kts 329°
2026-05-07 18:39 18.74207 -65.83910 31963 ft 452 kts 329°
2026-05-07 18:39 18.79973 -65.86579 31962 ft 452 kts 329°
2026-05-07 18:40 18.85707 -65.89235 31965 ft 453 kts 329°
2026-05-07 18:40 18.91476 -65.91910 31966 ft 453 kts 329°
2026-05-07 18:41 18.97251 -65.94591 31959 ft 454 kts 330°
2026-05-07 18:41 19.02658 -65.97101 31966 ft 454 kts 330°
2026-05-07 18:42 19.08466 -65.99799 31960 ft 455 kts 330°
2026-05-07 18:42 19.14250 -66.02487 31964 ft 455 kts 329°
2026-05-07 18:43 19.20055 -66.05189 31961 ft 455 kts 329°
2026-05-07 18:43 19.25854 -66.07892 31964 ft 456 kts 329°
2026-05-07 18:44 19.31654 -66.10595 31964 ft 456 kts 329°
2026-05-07 18:44 19.37441 -66.13294 31970 ft 456 kts 329°
2026-05-07 18:45 19.43288 -66.16023 31972 ft 457 kts 329°
2026-05-07 18:45 19.49097 -66.18735 31971 ft 457 kts 330°
2026-05-07 18:46 19.54925 -66.21460 31974 ft 457 kts 329°
2026-05-07 18:46 19.60770 -66.24196 31971 ft 458 kts 330°
2026-05-07 18:47 19.66585 -66.26918 31974 ft 458 kts 330°
2026-05-07 18:47 19.72423 -66.29653 31972 ft 457 kts 330°
2026-05-07 18:48 19.78218 -66.32372 31970 ft 457 kts 330°
2026-05-07 18:48 19.84059 -66.35115 31972 ft 458 kts 329°
2026-05-07 18:49 19.89871 -66.37846 31976 ft 459 kts 329°
2026-05-07 18:49 19.95721 -66.40599 31971 ft 459 kts 330°
2026-05-07 18:50 20.01561 -66.43345 31971 ft 459 kts 329°
2026-05-07 18:50 20.07389 -66.46089 31974 ft 459 kts 330°
2026-05-07 18:51 20.13218 -66.48835 31979 ft 458 kts 330°
2026-05-07 18:51 20.19033 -66.51578 31982 ft 458 kts 330°
2026-05-07 18:52 20.24858 -66.54328 31988 ft 458 kts 330°
2026-05-07 18:52 20.29727 -66.56629 31978 ft 458 kts 330°
2026-05-07 18:53 20.35540 -66.59378 31978 ft 457 kts 329°
2026-05-07 18:53 20.41349 -66.62126 31981 ft 457 kts 330°
2026-05-07 18:54 20.47164 -66.64880 31984 ft 457 kts 329°
2026-05-07 18:54 20.53006 -66.67649 31983 ft 457 kts 330°
2026-05-07 18:55 20.58812 -66.70404 31973 ft 457 kts 329°
2026-05-07 18:55 20.64626 -66.73164 31987 ft 457 kts 329°
2026-05-07 18:56 20.70435 -66.75925 31984 ft 458 kts 330°
2026-05-07 18:56 20.76258 -66.78695 31984 ft 458 kts 330°
2026-05-07 18:57 20.82060 -66.81456 31984 ft 458 kts 330°
2026-05-07 18:57 20.87912 -66.84242 31983 ft 458 kts 330°
2026-05-07 18:58 20.93734 -66.87019 31982 ft 459 kts 330°
2026-05-07 18:58 20.99538 -66.89789 31986 ft 459 kts 330°
2026-05-07 18:59 21.05370 -66.92574 31981 ft 459 kts 330°
2026-05-07 18:59 21.11185 -66.95353 31981 ft 457 kts 330°
2026-05-07 19:00 21.17028 -66.98149 31979 ft 457 kts 330°
2026-05-07 19:00 21.22818 -67.00922 31982 ft 456 kts 330°
2026-05-07 19:01 21.28631 -67.03710 31990 ft 459 kts 330°
2026-05-07 19:01 21.34469 -67.06511 31986 ft 462 kts 330°
2026-05-07 19:02 21.40338 -67.09329 31983 ft 463 kts 330°
2026-05-07 19:02 21.46215 -67.12152 31983 ft 463 kts 330°
2026-05-07 19:03 21.52113 -67.14989 31978 ft 462 kts 330°
2026-05-07 19:03 21.57953 -67.17800 31980 ft 460 kts 330°
2026-05-07 19:04 21.63951 -67.20278 31974 ft 468 kts 341°
2026-05-07 19:04 21.70336 -67.21568 31974 ft 469 kts 344°
2026-05-07 19:05 21.76768 -67.22782 31978 ft 468 kts 344°
2026-05-07 19:05 21.83180 -67.24041 31970 ft 467 kts 343°
2026-05-07 19:06 21.89562 -67.25326 31974 ft 466 kts 343°
2026-05-07 19:06 21.99083 -67.27255 31970 ft 466 kts 343°
2026-05-07 19:07 22.05462 -67.28547 31975 ft 466 kts 344°
2026-05-07 19:07 22.11837 -67.29837 31972 ft 467 kts 344°
2026-05-07 19:08 22.18230 -67.31133 31973 ft 468 kts 344°
2026-05-07 19:08 22.24627 -67.32430 31972 ft 468 kts 344°
2026-05-07 19:09 22.31032 -67.33736 31972 ft 468 kts 344°
2026-05-07 19:09 22.37425 -67.35044 31970 ft 468 kts 344°
2026-05-07 19:10 22.43785 -67.36346 31974 ft 468 kts 344°
2026-05-07 19:10 22.50189 -67.37658 31969 ft 468 kts 344°
2026-05-07 19:11 22.56579 -67.38968 31973 ft 467 kts 345°
2026-05-07 19:11 22.62971 -67.40279 31971 ft 467 kts 345°
2026-05-07 19:12 22.69352 -67.41590 31973 ft 466 kts 345°
2026-05-07 19:12 22.75728 -67.42901 31972 ft 465 kts 345°
2026-05-07 19:13 22.82084 -67.44209 31970 ft 465 kts 345°
2026-05-07 19:13 22.88438 -67.45518 31974 ft 464 kts 345°
2026-05-07 19:14 22.94752 -67.46819 31974 ft 464 kts 345°
2026-05-07 19:14 23.01095 -67.48128 31972 ft 464 kts 345°
2026-05-07 19:15 23.07440 -67.49439 31973 ft 463 kts 345°
2026-05-07 19:15 23.13770 -67.50748 31973 ft 463 kts 346°
2026-05-07 19:16 23.20102 -67.52057 31973 ft 463 kts 346°
2026-05-07 19:16 23.26422 -67.53367 31975 ft 462 kts 346°
2026-05-07 19:17 23.32749 -67.54679 31973 ft 462 kts 346°
2026-05-07 19:17 23.39019 -67.55981 31974 ft 461 kts 346°
2026-05-07 19:18 23.45324 -67.57291 31971 ft 460 kts 347°
2026-05-07 19:18 23.51607 -67.58597 31971 ft 459 kts 347°
2026-05-07 19:19 23.57887 -67.59904 31970 ft 459 kts 347°
2026-05-07 19:19 23.64157 -67.61211 31970 ft 458 kts 347°
2026-05-07 19:20 23.70410 -67.62516 31971 ft 457 kts 347°
2026-05-07 19:20 23.76626 -67.63813 31974 ft 457 kts 347°
2026-05-07 19:21 23.82870 -67.65119 31975 ft 457 kts 347°
2026-05-07 19:21 23.89124 -67.66426 31972 ft 457 kts 347°
2026-05-07 19:22 23.95375 -67.67735 31972 ft 457 kts 347°
2026-05-07 19:22 24.01630 -67.69047 31973 ft 457 kts 348°
2026-05-07 19:23 24.07841 -67.70349 31990 ft 457 kts 348°
2026-05-07 19:23 24.14087 -67.71662 31993 ft 457 kts 348°
2026-05-07 19:24 24.20336 -67.72976 31993 ft 457 kts 348°
2026-05-07 19:24 24.26588 -67.74291 31988 ft 457 kts 348°
2026-05-07 19:25 24.32839 -67.75608 31988 ft 457 kts 348°
2026-05-07 19:25 24.39061 -67.76919 31991 ft 457 kts 348°
2026-05-07 19:26 24.45312 -67.78239 31993 ft 458 kts 348°
2026-05-07 19:26 24.51574 -67.79561 31990 ft 457 kts 348°
2026-05-07 19:27 24.57828 -67.80884 31994 ft 457 kts 348°
2026-05-07 19:27 24.64084 -67.82206 31997 ft 458 kts 348°
2026-05-07 19:28 24.70343 -67.83534 31994 ft 457 kts 347°
2026-05-07 19:28 24.76596 -67.84860 31992 ft 458 kts 348°
2026-05-07 19:29 24.82848 -67.86189 31993 ft 457 kts 347°
2026-05-07 19:29 24.89091 -67.87515 31988 ft 457 kts 347°
2026-05-07 19:30 24.95300 -67.88837 31989 ft 457 kts 348°
2026-05-07 19:30 25.01540 -67.90166 31981 ft 457 kts 347°
2026-05-07 19:31 25.07788 -67.91499 31980 ft 457 kts 348°
2026-05-07 19:31 25.14033 -67.92831 31981 ft 457 kts 348°
2026-05-07 19:32 25.20278 -67.94166 31981 ft 457 kts 348°
2026-05-07 19:32 25.26532 -67.95504 31981 ft 457 kts 347°
2026-05-07 19:33 25.32794 -67.96845 31982 ft 458 kts 348°
2026-05-07 19:33 25.39000 -67.98175 31983 ft 458 kts 348°
2026-05-07 19:34 25.45261 -67.99518 31983 ft 458 kts 348°
2026-05-07 19:34 25.51510 -68.00859 31981 ft 457 kts 348°
2026-05-07 19:35 25.57763 -68.02203 31981 ft 457 kts 348°
2026-05-07 19:35 25.64008 -68.03545 31981 ft 457 kts 348°
2026-05-07 19:36 25.70248 -68.04888 31981 ft 456 kts 348°
2026-05-07 19:36 25.76474 -68.06232 31983 ft 456 kts 348°
2026-05-07 19:37 25.82664 -68.07569 31982 ft 456 kts 348°
2026-05-07 19:37 25.88891 -68.08914 31984 ft 456 kts 348°
2026-05-07 19:38 25.94119 -68.10045 31980 ft 456 kts 348°
2026-05-07 19:38 26.00303 -68.11383 31981 ft 456 kts 348°
2026-05-07 19:39 26.06526 -68.12732 31984 ft 456 kts 348°
2026-05-07 19:39 26.12748 -68.14083 31985 ft 455 kts 348°
2026-05-07 19:40 26.18970 -68.15434 31982 ft 456 kts 348°
2026-05-07 19:40 26.25196 -68.16787 31984 ft 456 kts 348°
2026-05-07 19:41 26.31429 -68.18142 31975 ft 456 kts 348°
2026-05-07 19:41 26.37669 -68.19504 31971 ft 456 kts 347°
2026-05-07 19:42 26.43899 -68.20863 31974 ft 456 kts 347°
2026-05-07 19:42 26.50134 -68.22225 31972 ft 456 kts 347°
2026-05-07 19:43 26.56365 -68.23587 31973 ft 456 kts 347°
2026-05-07 19:43 26.62583 -68.24948 31974 ft 455 kts 347°
2026-05-07 19:44 26.68766 -68.26304 31971 ft 455 kts 347°
2026-05-07 19:44 26.74967 -68.27664 31972 ft 454 kts 347°
2026-05-07 19:45 26.81171 -68.29026 31973 ft 454 kts 347°
2026-05-07 19:45 26.87370 -68.30389 31971 ft 453 kts 347°
2026-05-07 19:46 26.93558 -68.31752 31973 ft 453 kts 347°
2026-05-07 19:46 26.99705 -68.33107 31968 ft 453 kts 347°
2026-05-07 19:47 27.05929 -68.34478 31960 ft 453 kts 347°
2026-05-07 19:47 27.12113 -68.35844 31965 ft 452 kts 347°
2026-05-07 19:48 27.18255 -68.37202 31961 ft 452 kts 347°
2026-05-07 19:48 27.24419 -68.38566 31963 ft 452 kts 347°
2026-05-07 19:49 27.30595 -68.39935 31964 ft 452 kts 347°
2026-05-07 19:49 27.36772 -68.41305 31962 ft 452 kts 347°
2026-05-07 19:50 27.42952 -68.42676 31962 ft 452 kts 347°
2026-05-07 19:50 27.49090 -68.44041 31962 ft 452 kts 347°
2026-05-07 19:51 27.55260 -68.45416 31961 ft 451 kts 347°
2026-05-07 19:51 27.61433 -68.46792 31963 ft 451 kts 347°
2026-05-07 19:52 27.67565 -68.48160 31955 ft 451 kts 347°
2026-05-07 19:52 27.73737 -68.49539 31953 ft 451 kts 347°
2026-05-07 19:53 27.79928 -68.50924 31958 ft 452 kts 347°
2026-05-07 19:53 27.86073 -68.52300 31964 ft 452 kts 347°
2026-05-07 19:54 27.92254 -68.53684 31964 ft 451 kts 347°
2026-05-07 19:54 27.98387 -68.55062 31962 ft 452 kts 347°
2026-05-07 19:55 28.04543 -68.56448 31962 ft 452 kts 347°
2026-05-07 19:55 28.10699 -68.57837 31963 ft 451 kts 346°
2026-05-07 19:56 28.16878 -68.59232 31962 ft 451 kts 346°
2026-05-07 19:56 28.23034 -68.60622 31965 ft 451 kts 346°
2026-05-07 19:57 28.29187 -68.62013 31963 ft 451 kts 346°
2026-05-07 19:57 28.35326 -68.63404 31963 ft 451 kts 346°
2026-05-07 19:58 28.41501 -68.64803 31963 ft 451 kts 346°
2026-05-07 19:58 28.47611 -68.66191 31962 ft 451 kts 346°
2026-05-07 19:59 28.53787 -68.67595 31964 ft 451 kts 346°
2026-05-07 19:59 28.59916 -68.68990 31961 ft 451 kts 346°
2026-05-07 20:00 28.66061 -68.70390 31964 ft 451 kts 346°
2026-05-07 20:00 28.72199 -68.71791 31964 ft 450 kts 346°
2026-05-07 20:01 28.78348 -68.73196 31961 ft 450 kts 346°
2026-05-07 20:01 28.84520 -68.74605 31963 ft 450 kts 345°
2026-05-07 20:02 28.90653 -68.76006 31963 ft 449 kts 345°
2026-05-07 20:02 28.96768 -68.77405 31962 ft 449 kts 345°
2026-05-07 20:03 29.02877 -68.78803 31964 ft 449 kts 345°
2026-05-07 20:03 29.09001 -68.80206 31962 ft 449 kts 345°
2026-05-07 20:04 29.15150 -68.81619 31954 ft 449 kts 345°
2026-05-07 20:04 29.21256 -68.83022 31955 ft 449 kts 345°
2026-05-07 20:05 29.27411 -68.84439 31951 ft 450 kts 345°
2026-05-07 20:05 29.33523 -68.85846 31954 ft 450 kts 345°
2026-05-07 20:06 29.39656 -68.87260 31953 ft 450 kts 345°
2026-05-07 20:06 29.45807 -68.88680 31953 ft 450 kts 344°
2026-05-07 20:07 29.51944 -68.90099 31952 ft 450 kts 344°
2026-05-07 20:07 29.58078 -68.91519 31954 ft 450 kts 344°
2026-05-07 20:08 29.64210 -68.92941 31953 ft 450 kts 344°
2026-05-07 20:08 29.70311 -68.94357 31954 ft 450 kts 344°
2026-05-07 20:09 29.76444 -68.95781 31952 ft 449 kts 344°
2026-05-07 20:10 29.85649 -68.97925 31955 ft 450 kts 344°
2026-05-07 20:10 29.91788 -68.99355 31950 ft 450 kts 344°
2026-05-07 20:11 29.97926 -69.00789 31956 ft 450 kts 344°
2026-05-07 20:11 30.04077 -69.02226 31952 ft 450 kts 343°
2026-05-07 20:12 30.10179 -69.03653 31954 ft 450 kts 343°
2026-05-07 20:12 30.16325 -69.05093 31953 ft 450 kts 343°
2026-05-07 20:13 30.22477 -69.06536 31955 ft 451 kts 343°
2026-05-07 20:13 30.28631 -69.07982 31953 ft 451 kts 343°
2026-05-07 20:14 30.34786 -69.09429 31952 ft 451 kts 343°
2026-05-07 20:14 30.40938 -69.10878 31954 ft 451 kts 343°
2026-05-07 20:15 30.47093 -69.12329 31951 ft 451 kts 343°
2026-05-07 20:15 30.53210 -69.13774 31953 ft 452 kts 343°
2026-05-07 20:16 30.59375 -69.15231 31954 ft 452 kts 343°
2026-05-07 20:16 30.65539 -69.16690 31952 ft 452 kts 342°
2026-05-07 20:17 30.71701 -69.18151 31956 ft 452 kts 342°
2026-05-07 20:17 30.77869 -69.19614 31953 ft 452 kts 342°
2026-05-07 20:18 30.84044 -69.21082 31955 ft 452 kts 342°
2026-05-07 20:18 30.90224 -69.22552 31951 ft 452 kts 342°
2026-05-07 20:19 30.96364 -69.24014 31955 ft 453 kts 342°
2026-05-07 20:19 31.02546 -69.25487 31953 ft 453 kts 342°
2026-05-07 20:20 31.08722 -69.26960 31951 ft 453 kts 342°
2026-05-07 20:20 31.14895 -69.28437 31953 ft 453 kts 342°
2026-05-07 20:21 31.21072 -69.29916 31949 ft 453 kts 342°
2026-05-07 20:21 31.27209 -69.31386 31946 ft 453 kts 342°
2026-05-07 20:22 31.33387 -69.32872 31943 ft 453 kts 342°
2026-05-07 20:22 31.39562 -69.34356 31947 ft 453 kts 342°
2026-05-07 20:23 31.45750 -69.35846 31941 ft 454 kts 342°
2026-05-07 20:23 31.51940 -69.37337 31950 ft 454 kts 341°
2026-05-07 20:24 31.58138 -69.38834 31937 ft 454 kts 341°
2026-05-07 20:24 31.63286 -69.40077 31947 ft 454 kts 341°
2026-05-07 20:25 31.70494 -69.41820 31946 ft 455 kts 341°
2026-05-07 20:25 31.75691 -69.43080 31943 ft 455 kts 341°
2026-05-07 20:26 31.81855 -69.44575 31944 ft 455 kts 341°
2026-05-07 20:26 31.88053 -69.46080 31949 ft 455 kts 341°
2026-05-07 20:27 31.94260 -69.47591 31943 ft 456 kts 341°
2026-05-07 20:27 32.00471 -69.49105 31944 ft 456 kts 341°
2026-05-07 20:28 32.06685 -69.50619 31940 ft 455 kts 341°
2026-05-07 20:28 32.12891 -69.52135 31945 ft 455 kts 341°
2026-05-07 20:29 32.19081 -69.53649 31947 ft 454 kts 341°
2026-05-07 20:29 32.25237 -69.55157 31946 ft 454 kts 341°
2026-05-07 20:30 32.31461 -69.56684 31945 ft 454 kts 341°
2026-05-07 20:30 32.37599 -69.58193 31942 ft 454 kts 341°
2026-05-07 20:31 32.43795 -69.59718 31944 ft 455 kts 341°
2026-05-07 20:31 32.49993 -69.61244 31949 ft 455 kts 341°
2026-05-07 20:32 32.56204 -69.62777 31943 ft 456 kts 341°
2026-05-07 20:32 32.62422 -69.64313 31947 ft 456 kts 341°
2026-05-07 20:33 32.68615 -69.65845 31945 ft 457 kts 341°
2026-05-07 20:33 32.74850 -69.67389 31946 ft 457 kts 341°
2026-05-07 20:34 32.81082 -69.68935 31934 ft 458 kts 341°
2026-05-07 20:34 32.87324 -69.70486 31947 ft 458 kts 341°
2026-05-07 20:35 32.93560 -69.72037 31945 ft 458 kts 341°
2026-05-07 20:35 32.99805 -69.73593 31940 ft 458 kts 341°
2026-05-07 20:36 33.06017 -69.75144 31933 ft 459 kts 341°
2026-05-07 20:36 33.12270 -69.76706 31938 ft 459 kts 340°
2026-05-07 20:37 33.18523 -69.78270 31930 ft 459 kts 341°
2026-05-07 20:37 33.24766 -69.79836 31929 ft 458 kts 341°
2026-05-07 20:38 33.31009 -69.81402 31929 ft 458 kts 340°
2026-05-07 20:38 33.37255 -69.82974 31929 ft 458 kts 340°
2026-05-07 20:39 33.43460 -69.84540 31927 ft 459 kts 340°
2026-05-07 20:39 33.49716 -69.86121 31918 ft 460 kts 340°
2026-05-07 20:40 33.55981 -69.87705 31917 ft 460 kts 340°
2026-05-07 20:40 33.62251 -69.89293 31915 ft 460 kts 340°
2026-05-07 20:41 33.68518 -69.90884 31918 ft 461 kts 340°
2026-05-07 20:41 33.74795 -69.92478 31922 ft 461 kts 340°
2026-05-07 20:42 33.81075 -69.94076 31930 ft 461 kts 340°
2026-05-07 20:42 33.87320 -69.95669 31920 ft 462 kts 340°
2026-05-07 20:43 33.93622 -69.97277 31924 ft 461 kts 340°
2026-05-07 20:43 33.99902 -69.98883 31928 ft 461 kts 340°
2026-05-07 20:44 34.06191 -70.00493 31929 ft 461 kts 340°
2026-05-07 20:44 34.12473 -70.02104 31913 ft 462 kts 340°
2026-05-07 20:45 34.18719 -70.03708 31909 ft 462 kts 340°
2026-05-07 20:45 34.25018 -70.05327 31906 ft 461 kts 340°
2026-05-07 20:46 34.31297 -70.06944 31910 ft 461 kts 340°
2026-05-07 20:46 34.37576 -70.08564 31906 ft 461 kts 340°
2026-05-07 20:47 34.43806 -70.10174 31906 ft 461 kts 340°
2026-05-07 20:47 34.50083 -70.11799 31909 ft 461 kts 340°
2026-05-07 20:48 34.56349 -70.13423 31908 ft 461 kts 340°
2026-05-07 20:48 34.62632 -70.15054 31905 ft 461 kts 340°
2026-05-07 20:49 34.68907 -70.16686 31907 ft 461 kts 340°
2026-05-07 20:49 34.75148 -70.18311 31908 ft 461 kts 340°
2026-05-07 20:50 34.81423 -70.19946 31907 ft 461 kts 340°
2026-05-07 20:50 34.87704 -70.21586 31908 ft 461 kts 340°
2026-05-07 20:51 34.93985 -70.23230 31905 ft 462 kts 340°
2026-05-07 20:51 35.00267 -70.24876 31900 ft 462 kts 340°
2026-05-07 20:52 35.06535 -70.26521 31897 ft 462 kts 340°
2026-05-07 20:52 35.12855 -70.28181 31898 ft 461 kts 340°
2026-05-07 20:53 35.19103 -70.29828 31901 ft 461 kts 339°
2026-05-07 20:53 35.25398 -70.31488 31901 ft 461 kts 339°
2026-05-07 20:54 35.31669 -70.33144 31898 ft 461 kts 339°
2026-05-07 20:54 35.37930 -70.34796 31900 ft 462 kts 339°
2026-05-07 20:55 35.44221 -70.36462 31905 ft 461 kts 339°
2026-05-07 20:55 35.50489 -70.38128 31910 ft 463 kts 339°
2026-05-07 20:56 35.56762 -70.39796 31908 ft 463 kts 339°
2026-05-07 20:56 35.63099 -70.41485 31911 ft 464 kts 339°
2026-05-07 20:57 35.69420 -70.43169 31907 ft 464 kts 339°
2026-05-07 20:57 35.75743 -70.44856 31907 ft 464 kts 339°
2026-05-07 20:58 35.82017 -70.46533 31908 ft 464 kts 339°
2026-05-07 20:58 35.88354 -70.48229 31909 ft 465 kts 339°
2026-05-07 20:59 35.94677 -70.49924 31906 ft 466 kts 339°
2026-05-07 20:59 36.01009 -70.51627 31905 ft 466 kts 339°
2026-05-07 21:00 36.07337 -70.53328 31888 ft 466 kts 339°
2026-05-07 21:00 36.13689 -70.55038 31877 ft 466 kts 339°
2026-05-07 21:01 36.20024 -70.56745 31881 ft 466 kts 339°
2026-05-07 21:01 36.26349 -70.58454 31873 ft 465 kts 339°
2026-05-07 21:02 36.32700 -70.60175 31876 ft 465 kts 339°
2026-05-07 21:02 36.39011 -70.61886 31872 ft 465 kts 339°
2026-05-07 21:03 36.45347 -70.63606 31871 ft 464 kts 339°
2026-05-07 21:03 36.51624 -70.65311 31870 ft 464 kts 339°
2026-05-07 21:04 36.57931 -70.67030 31870 ft 464 kts 339°
2026-05-07 21:04 36.64225 -70.68749 31871 ft 464 kts 338°
2026-05-07 21:05 36.70546 -70.70477 31866 ft 465 kts 338°
2026-05-07 21:05 36.76873 -70.72212 31875 ft 465 kts 338°
2026-05-07 21:06 36.83190 -70.73946 31869 ft 465 kts 338°
2026-05-07 21:06 36.89513 -70.75684 31869 ft 466 kts 338°
2026-05-07 21:07 36.95856 -70.77429 31863 ft 466 kts 338°
2026-05-07 21:07 37.02191 -70.79176 31858 ft 465 kts 338°
2026-05-07 21:08 37.08533 -70.80926 31858 ft 466 kts 338°
2026-05-07 21:08 37.14870 -70.82680 31860 ft 466 kts 338°
2026-05-07 21:09 37.21204 -70.84435 31854 ft 467 kts 338°
2026-05-07 21:09 37.27545 -70.86195 31860 ft 468 kts 338°
2026-05-07 21:10 37.33884 -70.87958 31860 ft 468 kts 338°
2026-05-07 21:10 37.39183 -70.89433 31863 ft 469 kts 338°
2026-05-07 21:11 37.45577 -70.91218 31862 ft 469 kts 338°
2026-05-07 21:11 37.55096 -70.93880 31850 ft 469 kts 338°
2026-05-07 21:12 37.61497 -70.95674 31844 ft 469 kts 338°
2026-05-07 21:12 37.67890 -70.97465 31850 ft 470 kts 338°
2026-05-07 21:13 37.73843 -71.00177 31858 ft 446 kts 321°
2026-05-07 21:13 37.79179 -71.04161 31851 ft 444 kts 319°
2026-05-07 21:14 37.84499 -71.08189 31833 ft 444 kts 319°
2026-05-07 21:14 37.89804 -71.12161 31839 ft 445 kts 319°
2026-05-07 21:15 37.95150 -71.16137 31848 ft 445 kts 320°
2026-05-07 21:15 38.00489 -71.20105 31848 ft 446 kts 319°
2026-05-07 21:16 38.05844 -71.24096 31829 ft 447 kts 319°
2026-05-07 21:16 38.11210 -71.28102 31832 ft 448 kts 319°
2026-05-07 21:17 38.16576 -71.32116 31832 ft 448 kts 319°
2026-05-07 21:17 38.21957 -71.36148 31833 ft 448 kts 319°
2026-05-07 21:18 38.27345 -71.40192 31834 ft 449 kts 319°
2026-05-07 21:18 38.32719 -71.44233 31834 ft 448 kts 319°
2026-05-07 21:19 38.38074 -71.48265 31836 ft 449 kts 319°
2026-05-07 21:19 38.43438 -71.52310 31833 ft 449 kts 319°
2026-05-07 21:20 38.48839 -71.56390 31833 ft 448 kts 319°
2026-05-07 21:20 38.54170 -71.60426 31832 ft 447 kts 319°
2026-05-07 21:21 38.59521 -71.64487 31835 ft 447 kts 318°
2026-05-07 21:21 38.64870 -71.68552 31831 ft 447 kts 318°
2026-05-07 21:22 38.70224 -71.72625 31834 ft 447 kts 318°
2026-05-07 21:22 38.75539 -71.76678 31830 ft 447 kts 318°
2026-05-07 21:23 38.80881 -71.80761 31833 ft 447 kts 318°
2026-05-07 21:23 38.86225 -71.84847 31843 ft 447 kts 318°
2026-05-07 21:24 38.91526 -71.88910 31836 ft 447 kts 318°
2026-05-07 21:24 38.96870 -71.93014 31843 ft 447 kts 317°
2026-05-07 21:25 39.01875 -71.97515 31851 ft 433 kts 309°
2026-05-07 21:25 39.06495 -72.02478 31831 ft 432 kts 309°
2026-05-07 21:26 39.11144 -72.07415 31843 ft 433 kts 309°
2026-05-07 21:26 39.15781 -72.12280 31841 ft 432 kts 309°
2026-05-07 21:27 39.20437 -72.17171 31837 ft 431 kts 309°
2026-05-07 21:27 39.25085 -72.22070 31839 ft 431 kts 309°
2026-05-07 21:28 39.29725 -72.26971 31841 ft 430 kts 309°
2026-05-07 21:28 39.34364 -72.31877 31853 ft 430 kts 309°
2026-05-07 21:29 39.38970 -72.36756 31835 ft 430 kts 309°
2026-05-07 21:29 39.43598 -72.41669 31841 ft 429 kts 309°
2026-05-07 21:30 39.48206 -72.46571 31843 ft 429 kts 309°
2026-05-07 21:30 39.52820 -72.51485 31837 ft 429 kts 309°
2026-05-07 21:31 39.57429 -72.56409 31833 ft 430 kts 309°
2026-05-07 21:31 39.62045 -72.61338 31832 ft 429 kts 308°
2026-05-07 21:32 39.64363 -72.63824 31288 ft 436 kts 309°
2026-05-07 21:32 39.66690 -72.66317 30636 ft 433 kts 309°
2026-05-07 21:32 39.69010 -72.68801 29885 ft 432 kts 309°
2026-05-07 21:32 39.71330 -72.71290 29106 ft 432 kts 309°
2026-05-07 21:33 39.73641 -72.73776 28281 ft 433 kts 309°
2026-05-07 21:33 39.75966 -72.76272 27593 ft 430 kts 310°
2026-05-07 21:33 39.78260 -72.78739 26998 ft 425 kts 310°
2026-05-07 21:33 39.80198 -72.81486 26376 ft 402 kts 294°
2026-05-07 21:34 39.81405 -72.84658 25803 ft 386 kts 284°
2026-05-07 21:34 39.82078 -72.87959 24814 ft 379 kts 273°
2026-05-07 21:34 39.82171 -72.91366 23498 ft 378 kts 265°
2026-05-07 21:34 39.82061 -72.94794 22231 ft 380 kts 264°
2026-05-07 21:35 39.81936 -72.98217 21201 ft 377 kts 265°
2026-05-07 21:35 39.81820 -73.01588 20294 ft 370 kts 265°
2026-05-07 21:35 39.81716 -73.04908 19351 ft 364 kts 265°
2026-05-07 21:35 39.81619 -73.08178 18383 ft 360 kts 265°
2026-05-07 21:36 39.81526 -73.11416 17423 ft 356 kts 265°
2026-05-07 21:36 39.81436 -73.14601 16488 ft 351 kts 265°
2026-05-07 21:36 39.81346 -73.17766 15511 ft 348 kts 265°
2026-05-07 21:36 39.81313 -73.18884 15155 ft 347 kts 265°
2026-05-07 21:37 39.81246 -73.21176 14434 ft 346 kts 265°
2026-05-07 21:37 39.81276 -73.24298 13486 ft 345 kts 273°
2026-05-07 21:37 39.81425 -73.25762 13072 ft 344 kts 276°
2026-05-07 21:38 39.81428 -73.25784 13065 ft 344 kts 276°
2026-05-07 21:38 39.81929 -73.28633 12195 ft 343 kts 284°
2026-05-07 21:38 39.82801 -73.31546 11505 ft 336 kts 289°
2026-05-07 21:38 39.83691 -73.34261 11049 ft 323 kts 289°
2026-05-07 21:39 39.84557 -73.36895 10911 ft 305 kts 289°
2026-05-07 21:39 39.85361 -73.39354 10765 ft 292 kts 289°
2026-05-07 21:39 39.86137 -73.41752 10645 ft 288 kts 289°
2026-05-07 21:39 39.86937 -73.44253 10542 ft 298 kts 289°
2026-05-07 21:40 39.87716 -73.46688 10398 ft 291 kts 289°
2026-05-07 21:40 39.88485 -73.49083 10268 ft 282 kts 289°
2026-05-07 21:40 39.89226 -73.51396 10146 ft 272 kts 289°
2026-05-07 21:40 39.89943 -73.53639 10029 ft 263 kts 289°
2026-05-07 21:41 39.90615 -73.55744 9811 ft 259 kts 288°
2026-05-07 21:41 39.91304 -73.57907 9542 ft 257 kts 289°
2026-05-07 21:41 39.91986 -73.60052 9259 ft 256 kts 289°
2026-05-07 21:41 39.92667 -73.62185 8995 ft 254 kts 290°
2026-05-07 21:42 39.93405 -73.64260 8857 ft 252 kts 292°
2026-05-07 21:42 39.94196 -73.66329 8716 ft 258 kts 293°
2026-05-07 21:42 39.95010 -73.68445 8567 ft 264 kts 294°
2026-05-07 21:42 39.95835 -73.70595 8406 ft 265 kts 294°
2026-05-07 21:43 39.96656 -73.72748 8245 ft 266 kts 294°
2026-05-07 21:43 39.97477 -73.74910 8089 ft 266 kts 294°
2026-05-07 21:43 39.98290 -73.77061 7931 ft 264 kts 294°
2026-05-07 21:43 39.99099 -73.79202 7768 ft 260 kts 294°
2026-05-07 21:44 39.99887 -73.81285 7620 ft 257 kts 294°
2026-05-07 21:44 40.00886 -73.83213 7450 ft 260 kts 316°
2026-05-07 21:44 40.02469 -73.84347 7319 ft 264 kts 343°
2026-05-07 21:44 40.04313 -73.84428 7178 ft 271 kts
2026-05-07 21:45 40.06103 -73.83607 7040 ft 275 kts 21°
2026-05-07 21:45 40.07773 -73.82620 6876 ft 277 kts 22°
2026-05-07 21:45 40.09536 -73.81540 6706 ft 279 kts 22°
2026-05-07 21:45 40.11282 -73.80469 6535 ft 275 kts 22°
2026-05-07 21:46 40.12999 -73.79420 6347 ft 270 kts 22°
2026-05-07 21:46 40.14683 -73.78394 6168 ft 264 kts 22°
2026-05-07 21:46 40.16339 -73.77391 5984 ft 259 kts 22°
2026-05-07 21:46 40.17958 -73.76414 5802 ft 254 kts 22°
2026-05-07 21:47 40.19551 -73.75457 5622 ft 250 kts 22°
2026-05-07 21:47 40.21117 -73.74514 5438 ft 245 kts 22°
2026-05-07 21:47 40.22646 -73.73595 5258 ft 240 kts 22°
2026-05-07 21:47 40.24151 -73.72693 5076 ft 235 kts 22°
2026-05-07 21:48 40.25627 -73.71808 4893 ft 231 kts 22°
2026-05-07 21:48 40.27068 -73.70946 4719 ft 229 kts 22°
2026-05-07 21:48 40.28512 -73.70080 4548 ft 227 kts 22°
2026-05-07 21:48 40.29945 -73.69215 4355 ft 226 kts 22°
2026-05-07 21:49 40.31367 -73.68361 4194 ft 224 kts 22°
2026-05-07 21:49 40.32776 -73.67509 4016 ft 223 kts 23°
2026-05-07 21:49 40.34181 -73.66660 3840 ft 222 kts 23°
2026-05-07 21:49 40.35464 -73.65890 3685 ft 221 kts 22°
2026-05-07 21:50 40.36865 -73.65054 3511 ft 220 kts 22°
2026-05-07 21:50 40.38258 -73.64216 3336 ft 220 kts 23°
2026-05-07 21:50 40.39649 -73.63379 3161 ft 220 kts 23°
2026-05-07 21:50 40.41037 -73.62542 2993 ft 220 kts 23°
2026-05-07 21:51 40.42419 -73.61710 2816 ft 219 kts 23°
2026-05-07 21:51 40.43810 -73.60870 2641 ft 219 kts 23°
2026-05-07 21:51 40.45176 -73.60045 2494 ft 211 kts 23°
2026-05-07 21:51 40.46498 -73.59248 2338 ft 210 kts 24°
2026-05-07 21:52 40.47823 -73.58447 2159 ft 210 kts 24°
2026-05-07 21:52 40.49163 -73.57637 1975 ft 209 kts 24°
2026-05-07 21:52 40.50445 -73.56865 1837 ft 200 kts 24°
2026-05-07 21:52 40.51757 -73.56251 1781 ft 200 kts
2026-05-07 21:53 40.53015 -73.56797 1805 ft 194 kts 316°
2026-05-07 21:53 40.53617 -73.57700 1820 ft 195 kts 307°
2026-05-07 21:53 40.54446 -73.59083 1798 ft 192 kts 307°
2026-05-07 21:53 40.55234 -73.60490 1788 ft 189 kts 302°
2026-05-07 21:54 40.55940 -73.61951 1801 ft 190 kts 300°
2026-05-07 21:54 40.56628 -73.63466 1812 ft 192 kts 299°
2026-05-07 21:54 40.57289 -73.64934 1797 ft 180 kts 299°
2026-05-07 21:54 40.57911 -73.66315 1786 ft 171 kts 299°
2026-05-07 21:55 40.58516 -73.67661 1797 ft 174 kts 299°
2026-05-07 21:55 40.59151 -73.69075 1597 ft 181 kts 299°
2026-05-07 21:55 40.59787 -73.70486 1373 ft 176 kts 298°
2026-05-07 21:55 40.60386 -73.71814 1137 ft 163 kts 298°
2026-05-07 21:56 40.60948 -73.73064 928 ft 155 kts 298°
2026-05-07 21:56 40.61479 -73.74241 771 ft 147 kts 298°
2026-05-07 21:56 40.62001 -73.75400 537 ft 144 kts 298°
2026-05-07 21:56 40.62512 -73.76535 355 ft 144 kts 298°
2026-05-07 21:57 40.63021 -73.77662 160 ft 144 kts 299°
2026-05-07 21:57 40.63528 -73.78791 22 ft 136 kts 299°
2026-05-07 21:57 40.63944 -73.79696 21 ft 94 kts 299°
2026-05-07 21:57 40.64152 -73.80118 22 ft 26 kts 323°
2026-05-07 21:58 40.64280 -73.80191 19 ft 18 kts
2026-05-07 21:58 40.64292 -73.80068 21 ft 17 kts 123°
2026-05-07 21:58 40.64227 -73.79961 23 ft 14 kts 133°
2026-05-07 21:58 40.64159 -73.79871 20 ft 13 kts 134°
2026-05-07 21:59 40.64105 -73.79774 22 ft 13 kts 121°
2026-05-07 21:59 40.64061 -73.79673 21 ft 13 kts 120°
2026-05-07 21:59 40.64015 -73.79577 20 ft 12 kts 122°
2026-05-07 21:59 40.63971 -73.79485 20 ft 12 kts 122°
2026-05-07 22:00 40.63929 -73.79391 20 ft 12 kts 120°
2026-05-07 22:00 40.63889 -73.79300 21 ft 11 kts 120°
2026-05-07 22:00 40.63850 -73.79211 20 ft 11 kts 120°
2026-05-07 22:00 40.63812 -73.79124 21 ft 11 kts 120°
2026-05-07 22:01 40.63773 -73.79042 22 ft 10 kts 123°
2026-05-07 22:01 40.63735 -73.78962 20 ft 10 kts 121°
2026-05-07 22:01 40.63699 -73.78883 22 ft 10 kts 121°
2026-05-07 22:01 40.63665 -73.78808 24 ft 10 kts 120°
2026-05-07 22:02 40.63632 -73.78733 23 ft 9 kts 121°
2026-05-07 22:02 40.63599 -73.78660 23 ft 9 kts 121°
2026-05-07 22:02 40.63567 -73.78589 21 ft 9 kts 121°
2026-05-07 22:02 40.63536 -73.78521 23 ft 9 kts 121°
2026-05-07 22:03 40.63505 -73.78454 21 ft 8 kts 121°
2026-05-07 22:03 40.63479 -73.78388 23 ft 8 kts 101°
2026-05-07 22:03 40.63506 -73.78311 20 ft 12 kts 42°
2026-05-07 22:03 40.63590 -73.78254 20 ft 15 kts 13°
2026-05-07 22:04 40.63693 -73.78265 21 ft 15 kts 353°
2026-05-07 22:04 40.63792 -73.78284 21 ft 14 kts 350°
2026-05-07 22:04 40.63884 -73.78298 20 ft 11 kts 12°
2026-05-07 22:04 40.63919 -73.78219 20 ft 10 kts 73°
2026-05-07 22:05 40.63925 -73.78195 20 ft 0 kts 72°
2026-05-07 22:05 40.63926 -73.78191 20 ft 0 kts 72°